Total_Precipitation_Accumulation
0.00 0.01 0.06 0.12 0.16 0.11 0.02 0.02 0.06 0.05 0.01 0.00 0.00 0.00 0.00 0.00 0.00 0.00 0.00 0.00 0.01 0.01 0.00 0.00 0.02 0.07 0.05 0.08 0.22 0.14 0.03 0.01 0.01 0.01 0.02 0.05 0.04 0.01 0.01 0.00 0.01 0.00 0.00
0.00 0.01 0.07 0.09 0.15 0.30 0.29 0.16 0.10 0.03 0.02 0.02 0.02 0.01 0.01 0.00 0.00 0.00 0.00 0.01 0.02 0.00 0.01 0.06 0.11 0.06 0.06 0.05 0.07 0.01 0.00 0.00 0.00 0.00 0.01 0.02 0.02 0.02 0.03 0.01 0.06 0.06 0.06
0.00 0.02 0.04 0.09 0.07 0.12 0.22 0.21 0.13 0.09 0.03 0.03 0.07 0.04 0.01 0.00 0.00 0.00 0.01 0.02 0.01 0.02 0.07 0.10 0.04 0.02 0.00 0.00 0.00 0.00 0.00 0.00 0.01 0.04 0.04 0.13 0.08 0.12 0.10 0.16 0.25 0.17 0.13
0.01 0.05 0.05 0.12 0.14 0.11 0.16 0.21 0.19 0.16 0.09 0.08 0.12 0.12 0.01 0.00 0.00 0.00 0.04 0.09 0.05 0.05 0.08 0.03 0.00 0.00 0.00 0.00 0.00 0.00 0.01 0.01 0.00 0.02 0.04 0.01 0.02 0.16 0.07 0.02 0.01 0.01 0.01
0.01 0.06 0.07 0.15 0.23 0.16 0.12 0.15 0.16 0.20 0.15 0.12 0.10 0.07 0.01 0.00 0.00 0.02 0.17 0.26 0.05 0.04 0.04 0.00 0.00 0.00 0.00 0.00 0.00 0.00 0.00 0.00 0.00 0.00 0.00 0.00 0.00 0.00 0.00 0.00 0.00 0.00 0.00
0.02 0.08 0.17 0.27 0.32 0.30 0.16 0.12 0.14 0.13 0.12 0.11 0.09 0.04 0.01 0.00 0.00 0.06 0.22 0.14 0.03 0.02 0.00 0.00 0.00 0.00 0.00 0.00 0.00 0.00 0.00 0.00 0.00 0.00 0.00 0.00 0.00 0.00 0.00 0.00 0.00 0.00 0.00
0.03 0.05 0.15 0.31 0.48 0.43 0.30 0.21 0.21 0.19 0.16 0.12 0.08 0.05 0.03 0.01 0.01 0.07 0.11 0.05 0.08 0.01 0.00 0.00 0.00 0.00 0.00 0.00 0.00 0.00 0.00 0.00 0.00 0.00 0.00 0.00 0.00 0.00 0.00 0.00 0.00 0.00 0.00
0.05 0.04 0.12 0.11 0.29 0.47 0.47 0.31 0.28 0.26 0.20 0.16 0.13 0.09 0.08 0.08 0.13 0.08 0.05 0.06 0.12 0.03 0.00 0.00 0.00 0.00 0.00 0.00 0.00 0.00 0.00 0.00 0.00 0.00 0.00 0.00 0.00 0.00 0.00 0.00 0.00 0.00 0.00
0.05 0.13 0.24 0.19 0.17 0.26 0.46 0.38 0.28 0.25 0.19 0.16 0.17 0.15 0.09 0.12 0.27 0.22 0.07 0.07 0.12 0.15 0.02 0.00 0.00 0.00 0.00 0.00 0.00 0.00 0.00 0.00 0.00 0.00 0.00 0.00 0.00 0.00 0.00 0.00 0.00 0.00 0.00
0.00 0.03 0.12 0.15 0.13 0.14 0.15 0.21 0.21 0.19 0.17 0.16 0.15 0.11 0.10 0.04 0.07 0.42 0.47 0.07 0.08 0.12 0.07 0.01 0.00 0.00 0.00 0.00 0.00 0.00 0.00 0.00 0.00 0.00 0.00 0.00 0.00 0.00 0.00 0.00 0.00 0.00 0.00
0.00 0.03 0.07 0.11 0.09 0.07 0.10 0.13 0.15 0.19 0.28 0.23 0.15 0.09 0.07 0.02 0.02 0.10 0.26 0.13 0.01 0.03 0.03 0.03 0.01 0.00 0.00 0.00 0.00 0.00 0.00 0.00 0.00 0.00 0.00 0.00 0.00 0.00 0.00 0.00 0.00 0.00 0.00
0.00 0.00 0.03 0.10 0.14 0.14 0.11 0.08 0.10 0.16 0.18 0.14 0.14 0.14 0.08 0.04 0.04 0.05 0.09 0.17 0.03 0.01 0.01 0.03 0.03 0.00 0.00 0.00 0.00 0.00 0.00 0.00 0.00 0.00 0.00 0.00 0.00 0.00 0.00 0.00 0.00 0.00 0.00
0.00 0.00 0.00 0.04 0.14 0.15 0.21 0.22 0.12 0.06 0.08 0.11 0.10 0.13 0.12 0.07 0.05 0.07 0.15 0.12 0.04 0.00 0.00 0.00 0.01 0.00 0.00 0.00 0.00 0.00 0.00 0.00 0.00 0.00 0.00 0.00 0.00 0.00 0.00 0.00 0.00 0.00 0.00
0.00 0.00 0.00 0.00 0.05 0.16 0.16 0.15 0.13 0.17 0.12 0.07 0.08 0.09 0.08 0.07 0.05 0.05 0.08 0.10 0.09 0.02 0.00 0.00 0.00 0.00 0.00 0.00 0.00 0.00 0.00 0.00 0.00 0.00 0.00 0.00 0.00 0.00 0.00 0.00 0.00 0.00 0.00
0.00 0.00 0.00 0.00 0.00 0.00 0.05 0.09 0.09 0.08 0.15 0.08 0.11 0.07 0.05 0.03 0.02 0.04 0.04 0.05 0.06 0.03 0.00 0.00 0.00 0.00 0.00 0.00 0.00 0.00 0.00 0.00 0.00 0.00 0.00 0.00 0.00 0.00 0.00 0.00 0.00 0.00 0.00
0.00 0.00 0.00 0.00 0.00 0.00 0.00 0.01 0.03 0.07 0.14 0.14 0.09 0.08 0.06 0.03 0.02 0.03 0.03 0.04 0.04 0.04 0.01 0.00 0.00 0.00 0.00 0.00 0.00 0.00 0.00 0.00 0.00 0.00 0.00 0.00 0.00 0.00 0.00 0.00 0.01 0.04 0.05
0.00 0.00 0.00 0.00 0.00 0.00 0.00 0.00 0.00 0.01 0.11 0.19 0.16 0.15 0.18 0.11 0.07 0.09 0.10 0.08 0.07 0.12 0.12 0.07 0.02 0.01 0.00 0.00 0.00 0.00 0.00 0.00 0.00 0.00 0.00 0.00 0.00 0.00 0.00 0.00 0.00 0.01 0.01
0.00 0.00 0.00 0.00 0.00 0.00 0.00 0.00 0.00 0.01 0.02 0.07 0.15 0.19 0.15 0.17 0.18 0.19 0.19 0.12 0.15 0.25 0.31 0.23 0.13 0.08 0.02 0.00 0.00 0.00 0.00 0.00 0.00 0.00 0.00 0.00 0.00 0.00 0.00 0.00 0.00 0.00 0.01
0.00 0.00 0.00 0.00 0.00 0.00 0.00 0.00 0.01 0.02 0.02 0.02 0.09 0.20 0.27 0.15 0.16 0.28 0.29 0.25 0.25 0.35 0.41 0.35 0.22 0.13 0.08 0.06 0.02 0.06 0.06 0.06 0.04 0.02 0.00 0.00 0.00 0.00 0.00 0.00 0.00 0.00 0.00
0.00 0.00 0.00 0.00 0.00 0.00 0.00 0.00 0.01 0.04 0.04 0.03 0.05 0.07 0.15 0.15 0.12 0.22 0.33 0.37 0.49 0.47 0.35 0.39 0.30 0.20 0.11 0.08 0.12 0.11 0.09 0.06 0.04 0.02 0.00 0.01 0.00 0.00 0.00 0.00 0.00 0.00 0.00
0.00 0.00 0.00 0.00 0.00 0.00 0.00 0.00 0.00 0.01 0.02 0.04 0.03 0.03 0.06 0.07 0.11 0.28 0.34 0.38 0.42 0.45 0.35 0.43 0.53 0.57 0.38 0.35 0.32 0.18 0.13 0.10 0.06 0.04 0.02 0.01 0.00 0.00 0.00 0.00 0.00 0.00 0.00
0.00 0.00 0.00 0.00 0.00 0.00 0.00 0.00 0.00 0.01 0.01 0.04 0.11 0.07 0.05 0.13 0.14 0.22 0.28 0.27 0.32 0.37 0.40 0.44 0.51 0.47 0.39 0.54 0.47 0.35 0.22 0.10 0.02 0.02 0.04 0.03 0.01 0.00 0.00 0.00 0.00 0.00 0.00
0.00 0.00 0.00 0.00 0.00 0.00 0.00 0.00 0.00 0.01 0.03 0.04 0.05 0.06 0.04 0.11 0.15 0.14 0.24 0.27 0.31 0.34 0.32 0.38 0.47 0.54 0.54 0.62 0.65 0.49 0.42 0.19 0.07 0.07 0.06 0.06 0.07 0.04 0.01 0.01 0.03 0.03 0.02
0.00 0.00 0.00 0.00 0.00 0.00 0.00 0.00 0.00 0.01 0.01 0.01 0.02 0.04 0.06 0.09 0.13 0.20 0.20 0.23 0.29 0.29 0.25 0.19 0.31 0.51 0.86 0.98 1.07 1.02 1.09 1.02 0.80 0.53 0.34 0.30 0.29 0.25 0.19 0.08 0.05 0.06 0.04
0.00 0.00 0.00 0.00 0.00 0.01 0.00 0.00 0.00 0.00 0.00 0.02 0.03 0.04 0.05 0.09 0.14 0.20 0.23 0.24 0.28 0.38 0.35 0.31 0.29 0.36 0.42 0.46 0.53 0.65 0.73 0.95 1.19 1.04 0.61 0.34 0.28 0.21 0.20 0.19 0.15 0.13 0.10
0.00 0.00 0.00 0.00 0.01 0.02 0.01 0.01 0.01 0.00 0.00 0.03 0.06 0.06 0.08 0.09 0.13 0.18 0.22 0.24 0.24 0.27 0.44 0.40 0.43 0.48 0.47 0.44 0.39 0.44 0.46 0.53 0.67 0.87 0.79 0.60 0.50 0.30 0.24 0.19 0.16 0.12 0.11